Wetterdaten: Sonntag, 21.11.2010
Datum Zeit Temp. A. Feuchte A. Luftdruck Regen Wind Richtung Richtung Sonnenschein UV Solar Windben
21.11.2010 00:00 6,1 C 87 % 1012,7 hPa 0,0 mm 1,6 km/h (1 Bft) O-SO 112 0 min 0 UV-I 0 W/m 8,0 km/h (2 Bft)
21.11.2010 00:10 6,1 C 87 % 1012,6 hPa 0,0 mm 1,6 km/h (1 Bft) O-SO 112 0 min 0 UV-I 0 W/m 8,0 km/h (2 Bft)
21.11.2010 00:20 6,1 C 87 % 1012,5 hPa 0,0 mm 3,2 km/h (1 Bft) O-SO 112 0 min 0 UV-I 0 W/m 8,0 km/h (2 Bft)
21.11.2010 00:30 6,1 C 88 % 1012,4 hPa 0,0 mm 1,6 km/h (1 Bft) O-SO 112 0 min 0 UV-I 0 W/m 6,4 km/h (2 Bft)
21.11.2010 00:40 6,1 C 88 % 1012,3 hPa 0,0 mm 1,6 km/h (1 Bft) O-SO 112 0 min 0 UV-I 0 W/m 8,0 km/h (2 Bft)
21.11.2010 00:50 6,1 C 88 % 1012,2 hPa 0,0 mm 1,6 km/h (1 Bft) O-SO 112 0 min 0 UV-I 0 W/m 4,8 km/h (1 Bft)
21.11.2010 01:00 6,1 C 88 % 1012,1 hPa 0,0 mm 3,2 km/h (1 Bft) O-SO 112 0 min 0 UV-I 0 W/m 6,4 km/h (2 Bft)
21.11.2010 01:10 6,1 C 88 % 1012,0 hPa 0,0 mm 4,8 km/h (1 Bft) O-SO 112 0 min 0 UV-I 0 W/m 11,3 km/h (2 Bft)
21.11.2010 01:20 6,1 C 88 % 1012,2 hPa 0,0 mm 4,8 km/h (1 Bft) O-SO 112 0 min 0 UV-I 0 W/m 9,7 km/h (2 Bft)
21.11.2010 01:30 6,1 C 88 % 1012,0 hPa 0,0 mm 4,8 km/h (1 Bft) O-SO 112 0 min 0 UV-I 0 W/m 9,7 km/h (2 Bft)
21.11.2010 01:40 6,1 C 88 % 1012,0 hPa 0,0 mm 1,6 km/h (1 Bft) O-SO 112 0 min 0 UV-I 0 W/m 8,0 km/h (2 Bft)
21.11.2010 01:50 6,1 C 87 % 1012,0 hPa 0,0 mm 3,2 km/h (1 Bft) O-SO 112 0 min 0 UV-I 0 W/m 6,4 km/h (2 Bft)
21.11.2010 02:00 6,2 C 87 % 1011,9 hPa 0,0 mm 1,6 km/h (1 Bft) O-SO 112 0 min 0 UV-I 0 W/m 6,4 km/h (2 Bft)
21.11.2010 02:10 6,1 C 87 % 1011,8 hPa 0,0 mm 1,6 km/h (1 Bft) O-SO 112 0 min 0 UV-I 0 W/m 4,8 km/h (1 Bft)
21.11.2010 02:20 6,1 C 87 % 1011,8 hPa 0,0 mm 1,6 km/h (1 Bft) O-SO 112 0 min 0 UV-I 0 W/m 6,4 km/h (2 Bft)
21.11.2010 02:30 6,1 C 87 % 1011,7 hPa 0,0 mm 1,6 km/h (1 Bft) O-SO 112 0 min 0 UV-I 0 W/m 4,8 km/h (1 Bft)
21.11.2010 02:40 6,1 C 87 % 1011,6 hPa 0,0 mm 1,6 km/h (1 Bft) O-SO 112 0 min 0 UV-I 0 W/m 6,4 km/h (2 Bft)
21.11.2010 02:50 6,0 C 87 % 1011,5 hPa 0,0 mm 3,2 km/h (1 Bft) O-SO 112 0 min 0 UV-I 0 W/m 8,0 km/h (2 Bft)
21.11.2010 03:00 5,9 C 87 % 1011,3 hPa 0,0 mm 1,6 km/h (1 Bft) O-SO 112 0 min 0 UV-I 0 W/m 6,4 km/h (2 Bft)
21.11.2010 03:10 5,7 C 86 % 1011,3 hPa 0,0 mm 1,6 km/h (1 Bft) O-SO 112 0 min 0 UV-I 0 W/m 4,8 km/h (1 Bft)
21.11.2010 03:20 5,6 C 86 % 1011,2 hPa 0,0 mm 0,0 km/h (0 Bft) O-SO 112 0 min 0 UV-I 0 W/m 4,8 km/h (1 Bft)
21.11.2010 03:30 5,4 C 86 % 1011,0 hPa 0,0 mm 0,0 km/h (0 Bft) O-SO 112 0 min 0 UV-I 0 W/m 3,2 km/h (1 Bft)
21.11.2010 03:40 5,2 C 86 % 1011,0 hPa 0,0 mm 1,6 km/h (1 Bft) O-SO 112 0 min 0 UV-I 0 W/m 4,8 km/h (1 Bft)
21.11.2010 03:50 5,0 C 86 % 1010,9 hPa 0,0 mm 1,6 km/h (1 Bft) O-SO 112 0 min 0 UV-I 0 W/m 4,8 km/h (1 Bft)
21.11.2010 04:00 4,8 C 86 % 1010,9 hPa 0,0 mm 0,0 km/h (0 Bft) O-SO 112 0 min 0 UV-I 0 W/m 3,2 km/h (1 Bft)
21.11.2010 04:10 4,7 C 86 % 1010,9 hPa 0,0 mm 0,0 km/h (0 Bft) O-SO 112 0 min 0 UV-I 0 W/m 4,8 km/h (1 Bft)
21.11.2010 04:20 4,6 C 87 % 1010,7 hPa 0,0 mm 0,0 km/h (0 Bft) O-SO 112 0 min 0 UV-I 0 W/m 3,2 km/h (1 Bft)
21.11.2010 04:30 4,4 C 86 % 1010,5 hPa 0,0 mm 0,0 km/h (0 Bft) O-SO 112 0 min 0 UV-I 0 W/m 3,2 km/h (1 Bft)
21.11.2010 04:40 4,3 C 86 % 1010,5 hPa 0,0 mm 0,0 km/h (0 Bft) O-SO 112 0 min 0 UV-I 0 W/m 1,6 km/h (1 Bft)
21.11.2010 04:50 4,1 C 86 % 1010,4 hPa 0,0 mm 0,0 km/h (0 Bft) O-SO 112 0 min 0 UV-I 0 W/m 1,6 km/h (1 Bft)
21.11.2010 05:00 3,9 C 86 % 1010,4 hPa 0,0 mm 0,0 km/h (0 Bft) O-SO 112 0 min 0 UV-I 0 W/m 1,6 km/h (1 Bft)
21.11.2010 05:10 3,8 C 86 % 1010,4 hPa 0,0 mm 0,0 km/h (0 Bft) N 0 0 min 0 UV-I 0 W/m 0,0 km/h (0 Bft)
21.11.2010 05:20 3,6 C 86 % 1010,2 hPa 0,0 mm 0,0 km/h (0 Bft) O-SO 112 0 min 0 UV-I 0 W/m 4,8 km/h (1 Bft)
21.11.2010 05:30 3,4 C 87 % 1010,3 hPa 0,0 mm 0,0 km/h (0 Bft) O-SO 112 0 min 0 UV-I 0 W/m 6,4 km/h (2 Bft)
21.11.2010 05:40 3,3 C 87 % 1010,3 hPa 0,0 mm 0,0 km/h (0 Bft) O-SO 112 0 min 0 UV-I 0 W/m 1,6 km/h (1 Bft)
21.11.2010 05:50 3,2 C 87 % 1010,3 hPa 0,0 mm 0,0 km/h (0 Bft) O-SO 112 0 min 0 UV-I 0 W/m 4,8 km/h (1 Bft)
21.11.2010 06:00 3,1 C 87 % 1010,3 hPa 0,0 mm 0,0 km/h (0 Bft) O-SO 112 0 min 0 UV-I 0 W/m 4,8 km/h (1 Bft)
21.11.2010 06:10 3,1 C 88 % 1010,4 hPa 0,0 mm 1,6 km/h (1 Bft) O-SO 112 0 min 0 UV-I 0 W/m 6,4 km/h (2 Bft)
21.11.2010 06:20 3,2 C 89 % 1010,3 hPa 0,0 mm 3,2 km/h (1 Bft) O-SO 112 0 min 0 UV-I 0 W/m 11,3 km/h (2 Bft)
21.11.2010 06:30 3,3 C 89 % 1010,3 hPa 0,0 mm 3,2 km/h (1 Bft) O-SO 112 0 min 0 UV-I 0 W/m 11,3 km/h (2 Bft)
21.11.2010 06:40 3,5 C 89 % 1010,3 hPa 0,0 mm 4,8 km/h (1 Bft) O-SO 112 0 min 0 UV-I 0 W/m 9,7 km/h (2 Bft)
21.11.2010 06:50 3,6 C 89 % 1010,2 hPa 0,0 mm 4,8 km/h (1 Bft) O-SO 112 0 min 0 UV-I 0 W/m 11,3 km/h (2 Bft)
21.11.2010 07:00 3,6 C 89 % 1010,1 hPa 0,0 mm 3,2 km/h (1 Bft) O-SO 112 0 min 0 UV-I 0 W/m 8,0 km/h (2 Bft)
21.11.2010 07:10 3,6 C 89 % 1010,1 hPa 0,0 mm 1,6 km/h (1 Bft) O-SO 112 0 min 0 UV-I 0 W/m 8,0 km/h (2 Bft)
21.11.2010 07:20 3,6 C 89 % 1010,0 hPa 0,0 mm 1,6 km/h (1 Bft) O-SO 112 0 min 0 UV-I 0 W/m 4,8 km/h (1 Bft)
21.11.2010 07:30 3,6 C 89 % 1010,1 hPa 0,0 mm 0,0 km/h (0 Bft) O-SO 112 0 min 0 UV-I 0 W/m 4,8 km/h (1 Bft)
21.11.2010 07:40 3,5 C 89 % 1010,0 hPa 0,0 mm 0,0 km/h (0 Bft) O-SO 112 0 min 0 UV-I 0 W/m 4,8 km/h (1 Bft)
21.11.2010 07:50 3,4 C 89 % 1010,0 hPa 0,0 mm 0,0 km/h (0 Bft) O-SO 112 0 min 0 UV-I 0 W/m 6,4 km/h (2 Bft)
21.11.2010 08:00 3,3 C 89 % 1010,0 hPa 0,0 mm 1,1 km/h (1 Bft) O-SO 107 0 min 0 UV-I 0 W/m 6,4 km/h (2 Bft)
21.11.2010 08:10 3,3 C 89 % 1010,0 hPa 0,0 mm 1,6 km/h (1 Bft) O-SO 112 0 min 0 UV-I 5 W/m 6,4 km/h (2 Bft)
21.11.2010 08:20 3,3 C 90 % 1010,0 hPa 0,0 mm 0,0 km/h (0 Bft) O-SO 112 0 min 0 UV-I 11 W/m 1,6 km/h (1 Bft)
21.11.2010 08:30 3,3 C 90 % 1010,2 hPa 0,0 mm 0,0 km/h (0 Bft) O-SO 112 0 min 0 UV-I 18 W/m 4,8 km/h (1 Bft)
21.11.2010 08:40 3,3 C 90 % 1010,2 hPa 0,0 mm 0,0 km/h (0 Bft) N 0 0 min 0 UV-I 23 W/m 0,0 km/h (0 Bft)
21.11.2010 08:50 3,3 C 90 % 1010,2 hPa 0,0 mm 0,0 km/h (0 Bft) O-SO 112 0 min 0 UV-I 26 W/m 4,8 km/h (1 Bft)
21.11.2010 09:00 3,3 C 90 % 1010,3 hPa 0,0 mm 1,6 km/h (1 Bft) O-SO 112 0 min 0 UV-I 42 W/m 6,4 km/h (2 Bft)
21.11.2010 09:10 3,3 C 90 % 1010,3 hPa 0,0 mm 0,0 km/h (0 Bft) O-SO 112 0 min 0 UV-I 30 W/m 4,8 km/h (1 Bft)
21.11.2010 09:20 3,4 C 90 % 1010,2 hPa 0,0 mm 1,6 km/h (1 Bft) O-SO 112 0 min 0 UV-I 32 W/m 8,0 km/h (2 Bft)
21.11.2010 09:30 3,5 C 90 % 1010,2 hPa 0,0 mm 3,2 km/h (1 Bft) O-SO 112 0 min 0 UV-I 35 W/m 6,4 km/h (2 Bft)
21.11.2010 09:40 3,7 C 90 % 1010,2 hPa 0,0 mm 3,2 km/h (1 Bft) O-SO 112 0 min 0 UV-I 39 W/m 8,0 km/h (2 Bft)
21.11.2010 09:50 4,0 C 91 % 1010,0 hPa 0,0 mm 1,6 km/h (1 Bft) O-SO 112 10 min 1 UV-I 176 W/m 6,4 km/h (2 Bft)
21.11.2010 10:00 4,7 C 90 % 1010,1 hPa 0,0 mm 3,2 km/h (1 Bft) O-SO 112 10 min 1 UV-I 195 W/m 8,0 km/h (2 Bft)
21.11.2010 10:10 5,2 C 88 % 1010,1 hPa 0,0 mm 3,2 km/h (1 Bft) O-SO 112 10 min 1 UV-I 207 W/m 9,7 km/h (2 Bft)
21.11.2010 10:20 5,6 C 87 % 1010,0 hPa 0,0 mm 3,2 km/h (1 Bft) O-SO 112 10 min 1 UV-I 220 W/m 8,0 km/h (2 Bft)
21.11.2010 10:30 5,8 C 86 % 1010,0 hPa 0,0 mm 3,2 km/h (1 Bft) O-SO 112 10 min 1 UV-I 230 W/m 16,1 km/h (3 Bft)
21.11.2010 10:40 5,9 C 85 % 1010,0 hPa 0,0 mm 3,2 km/h (1 Bft) O-SO 112 10 min 1 UV-I 244 W/m 8,0 km/h (2 Bft)
21.11.2010 10:50 6,2 C 84 % 1010,0 hPa 0,0 mm 4,8 km/h (1 Bft) O 90 10 min 1 UV-I 262 W/m 9,7 km/h (2 Bft)
21.11.2010 11:00 6,4 C 83 % 1010,0 hPa 0,0 mm 4,8 km/h (1 Bft) O 90 10 min 1 UV-I 262 W/m 11,3 km/h (2 Bft)
21.11.2010 11:10 6,7 C 81 % 1009,7 hPa 0,0 mm 3,2 km/h (1 Bft) O 90 10 min 1 UV-I 253 W/m 11,3 km/h (2 Bft)
21.11.2010 11:20 6,8 C 81 % 1009,7 hPa 0,0 mm 6,4 km/h (2 Bft) O-NO 67 10 min 1 UV-I 295 W/m 16,1 km/h (3 Bft)
21.11.2010 11:30 7,1 C 79 % 1009,7 hPa 0,0 mm 4,8 km/h (1 Bft) O-NO 67 10 min 1 UV-I 301 W/m 14,5 km/h (3 Bft)
21.11.2010 11:40 7,3 C 79 % 1009,7 hPa 0,0 mm 4,8 km/h (1 Bft) O-NO 67 10 min 1 UV-I 308 W/m 14,5 km/h (3 Bft)
21.11.2010 11:50 7,4 C 77 % 1009,7 hPa 0,0 mm 4,8 km/h (1 Bft) O 90 10 min 1 UV-I 304 W/m 9,7 km/h (2 Bft)
21.11.2010 12:00 7,5 C 77 % 1009,4 hPa 0,0 mm 6,4 km/h (2 Bft) O-NO 67 10 min 1 UV-I 315 W/m 16,1 km/h (3 Bft)
21.11.2010 12:10 7,6 C 76 % 1009,3 hPa 0,0 mm 4,8 km/h (1 Bft) O 90 10 min 1 UV-I 332 W/m 14,5 km/h (3 Bft)
21.11.2010 12:20 7,8 C 76 % 1009,2 hPa 0,0 mm 6,4 km/h (2 Bft) O 90 10 min 1 UV-I 346 W/m 19,3 km/h (3 Bft)
21.11.2010 12:30 7,8 C 75 % 1009,2 hPa 0,0 mm 4,8 km/h (1 Bft) O-NO 67 10 min 1 UV-I 345 W/m 16,1 km/h (3 Bft)
21.11.2010 12:40 8,0 C 75 % 1009,0 hPa 0,0 mm 4,8 km/h (1 Bft) O 90 10 min 1 UV-I 306 W/m 16,1 km/h (3 Bft)
21.11.2010 12:50 8,1 C 75 % 1009,0 hPa 0,0 mm 4,8 km/h (1 Bft) O 90 10 min 1 UV-I 253 W/m 16,1 km/h (3 Bft)
21.11.2010 13:00 8,1 C 74 % 1009,0 hPa 0,0 mm 4,8 km/h (1 Bft) O 90 10 min 1 UV-I 216 W/m 14,5 km/h (3 Bft)
21.11.2010 13:10 8,0 C 73 % 1009,0 hPa 0,0 mm 4,8 km/h (1 Bft) O 90 10 min 1 UV-I 207 W/m 16,1 km/h (3 Bft)
21.11.2010 13:20 8,1 C 73 % 1008,9 hPa 0,0 mm 4,8 km/h (1 Bft) O 90 10 min 1 UV-I 278 W/m 11,3 km/h (2 Bft)
21.11.2010 13:30 8,4 C 70 % 1009,0 hPa 0,0 mm 6,4 km/h (2 Bft) O 90 10 min 1 UV-I 369 W/m 19,3 km/h (3 Bft)
21.11.2010 13:40 8,8 C 69 % 1008,9 hPa 0,0 mm 6,4 km/h (2 Bft) O 90 10 min 1 UV-I 367 W/m 16,1 km/h (3 Bft)
21.11.2010 13:50 9,0 C 69 % 1009,0 hPa 0,0 mm 4,8 km/h (1 Bft) O 90 10 min 1 UV-I 332 W/m 16,1 km/h (3 Bft)
21.11.2010 14:00 8,9 C 67 % 1008,9 hPa 0,0 mm 4,8 km/h (1 Bft) O-NO 67 10 min 1 UV-I 294 W/m 17,7 km/h (3 Bft)
21.11.2010 14:10 8,7 C 69 % 1008,7 hPa 0,0 mm 4,8 km/h (1 Bft) O 90 10 min 1 UV-I 257 W/m 16,1 km/h (3 Bft)
21.11.2010 14:20 8,4 C 69 % 1008,6 hPa 0,0 mm 6,4 km/h (2 Bft) O 90 10 min 1 UV-I 185 W/m 14,5 km/h (3 Bft)
21.11.2010 14:30 8,3 C 69 % 1008,6 hPa 0,0 mm 6,4 km/h (2 Bft) O 90 10 min 1 UV-I 135 W/m 14,5 km/h (3 Bft)
21.11.2010 14:40 8,1 C 69 % 1008,6 hPa 0,0 mm 4,8 km/h (1 Bft) O-NO 67 10 min 1 UV-I 111 W/m 17,7 km/h (3 Bft)
21.11.2010 14:50 7,9 C 70 % 1008,6 hPa 0,0 mm 4,8 km/h (1 Bft) O 90 0 min 0 UV-I 76 W/m 16,1 km/h (3 Bft)
21.11.2010 15:00 7,8 C 72 % 1008,5 hPa 0,0 mm 4,8 km/h (1 Bft) O-NO 67 10 min 0 UV-I 137 W/m 11,3 km/h (2 Bft)
21.11.2010 15:10 7,6 C 75 % 1008,5 hPa 0,0 mm 3,2 km/h (1 Bft) O-NO 67 10 min 0 UV-I 123 W/m 14,5 km/h (3 Bft)
21.11.2010 15:20 7,3 C 76 % 1008,4 hPa 0,0 mm 4,8 km/h (1 Bft) O-NO 67 0 min 0 UV-I 60 W/m 12,9 km/h (3 Bft)
21.11.2010 15:30 7,0 C 77 % 1008,4 hPa 0,0 mm 3,2 km/h (1 Bft) O-NO 67 0 min 0 UV-I 40 W/m 11,3 km/h (2 Bft)
21.11.2010 15:40 6,7 C 78 % 1008,4 hPa 0,0 mm 3,2 km/h (1 Bft) O-NO 67 0 min 0 UV-I 37 W/m 11,3 km/h (2 Bft)
21.11.2010 15:50 6,5 C 79 % 1008,5 hPa 0,0 mm 3,2 km/h (1 Bft) NO 45 0 min 0 UV-I 33 W/m 11,3 km/h (2 Bft)
21.11.2010 16:00 6,3 C 79 % 1008,4 hPa 0,0 mm 4,8 km/h (1 Bft) O-NO 67 0 min 0 UV-I 26 W/m 14,5 km/h (3 Bft)
21.11.2010 16:10 6,0 C 80 % 1008,6 hPa 0,0 mm 3,2 km/h (1 Bft) NO 45 10 min 0 UV-I 19 W/m 9,7 km/h (2 Bft)
21.11.2010 16:20 5,7 C 80 % 1008,7 hPa 0,0 mm 3,2 km/h (1 Bft) O-NO 67 0 min 0 UV-I 11 W/m 11,3 km/h (2 Bft)
21.11.2010 16:30 5,3 C 82 % 1008,7 hPa 0,0 mm 1,6 km/h (1 Bft) O-NO 67 0 min 0 UV-I 5 W/m 11,3 km/h (2 Bft)
21.11.2010 16:40 5,0 C 82 % 1008,8 hPa 0,0 mm 1,6 km/h (1 Bft) O-NO 67 0 min 0 UV-I 0 W/m 9,7 km/h (2 Bft)
21.11.2010 16:50 4,7 C 83 % 1008,7 hPa 0,0 mm 3,2 km/h (1 Bft) O 90 0 min 0 UV-I 0 W/m 8,0 km/h (2 Bft)
21.11.2010 17:00 4,4 C 83 % 1008,9 hPa 0,0 mm 3,2 km/h (1 Bft) NO 45 0 min 0 UV-I 0 W/m 11,3 km/h (2 Bft)
21.11.2010 17:10 4,2 C 84 % 1008,9 hPa 0,0 mm 3,2 km/h (1 Bft) O 90 0 min 0 UV-I 0 W/m 9,7 km/h (2 Bft)
21.11.2010 17:20 3,9 C 84 % 1008,8 hPa 0,0 mm 4,8 km/h (1 Bft) O-NO 67 0 min 0 UV-I 0 W/m 11,3 km/h (2 Bft)
21.11.2010 17:30 3,8 C 85 % 1008,9 hPa 0,0 mm 4,8 km/h (1 Bft) O-NO 67 0 min 0 UV-I 0 W/m 16,1 km/h (3 Bft)
21.11.2010 17:40 3,6 C 85 % 1009,0 hPa 0,0 mm 4,8 km/h (1 Bft) O-NO 67 0 min 0 UV-I 0 W/m 14,5 km/h (3 Bft)
21.11.2010 17:50 3,4 C 85 % 1008,9 hPa 0,0 mm 4,8 km/h (1 Bft) O-NO 67 0 min 0 UV-I 0 W/m 17,7 km/h (3 Bft)
21.11.2010 18:00 3,3 C 86 % 1008,8 hPa 0,0 mm 4,8 km/h (1 Bft) O-NO 67 0 min 0 UV-I 0 W/m 14,5 km/h (3 Bft)
21.11.2010 18:10 3,3 C 86 % 1008,7 hPa 0,0 mm 4,8 km/h (1 Bft) O-NO 67 0 min 0 UV-I 0 W/m 16,1 km/h (3 Bft)
21.11.2010 18:20 3,2 C 86 % 1008,7 hPa 0,0 mm 3,2 km/h (1 Bft) O 90 0 min 0 UV-I 0 W/m 11,3 km/h (2 Bft)
21.11.2010 18:30 3,1 C 87 % 1008,8 hPa 0,0 mm 3,2 km/h (1 Bft) O-NO 67 0 min 0 UV-I 0 W/m 12,9 km/h (3 Bft)
21.11.2010 18:40 3,0 C 87 % 1008,7 hPa 0,0 mm 1,6 km/h (1 Bft) O-NO 67 0 min 0 UV-I 0 W/m 6,4 km/h (2 Bft)
21.11.2010 18:50 2,9 C 87 % 1008,7 hPa 0,0 mm 1,6 km/h (1 Bft) O-NO 67 0 min 0 UV-I 0 W/m 8,0 km/h (2 Bft)
21.11.2010 19:00 2,8 C 87 % 1008,6 hPa 0,0 mm 1,6 km/h (1 Bft) O 90 0 min 0 UV-I 0 W/m 9,7 km/h (2 Bft)
21.11.2010 19:10 2,8 C 87 % 1008,7 hPa 0,0 mm 3,2 km/h (1 Bft) O-NO 67 0 min 0 UV-I 0 W/m 11,3 km/h (2 Bft)
21.11.2010 19:20 2,8 C 87 % 1008,8 hPa 0,0 mm 3,2 km/h (1 Bft) O-NO 67 0 min 0 UV-I 0 W/m 11,3 km/h (2 Bft)
21.11.2010 19:30 2,8 C 87 % 1008,7 hPa 0,0 mm 1,6 km/h (1 Bft) O 90 0 min 0 UV-I 0 W/m 9,7 km/h (2 Bft)
21.11.2010 19:40 2,7 C 87 % 1008,6 hPa 0,0 mm 1,6 km/h (1 Bft) O-SO 112 0 min 0 UV-I 0 W/m 8,0 km/h (2 Bft)
21.11.2010 19:50 2,7 C 87 % 1008,6 hPa 0,0 mm 3,2 km/h (1 Bft) O-NO 67 0 min 0 UV-I 0 W/m 12,9 km/h (3 Bft)
21.11.2010 20:00 2,8 C 87 % 1008,7 hPa 0,0 mm 4,8 km/h (1 Bft) O 90 0 min 0 UV-I 0 W/m 17,7 km/h (3 Bft)
21.11.2010 20:10 2,9 C 87 % 1008,5 hPa 0,0 mm 4,8 km/h (1 Bft) O 90 0 min 0 UV-I 0 W/m 11,3 km/h (2 Bft)
21.11.2010 20:20 2,9 C 87 % 1008,4 hPa 0,0 mm 3,2 km/h (1 Bft) O 90 0 min 0 UV-I 0 W/m 16,1 km/h (3 Bft)
21.11.2010 20:30 3,0 C 87 % 1008,4 hPa 0,0 mm 4,8 km/h (1 Bft) O-NO 67 0 min 0 UV-I 0 W/m 17,7 km/h (3 Bft)
21.11.2010 20:40 3,0 C 87 % 1008,4 hPa 0,0 mm 3,2 km/h (1 Bft) O 90 0 min 0 UV-I 0 W/m 9,7 km/h (2 Bft)
21.11.2010 20:50 3,0 C 87 % 1008,3 hPa 0,0 mm 3,2 km/h (1 Bft) O-NO 67 0 min 0 UV-I 0 W/m 9,7 km/h (2 Bft)
21.11.2010 21:00 2,9 C 86 % 1008,3 hPa 0,0 mm 1,6 km/h (1 Bft) O-NO 67 0 min 0 UV-I 0 W/m 8,0 km/h (2 Bft)
21.11.2010 21:10 2,9 C 87 % 1008,2 hPa 0,0 mm 1,6 km/h (1 Bft) O-NO 67 0 min 0 UV-I 0 W/m 8,0 km/h (2 Bft)
21.11.2010 21:20 2,8 C 86 % 1008,3 hPa 0,0 mm 0,0 km/h (0 Bft) O-NO 67 0 min 0 UV-I 0 W/m 3,2 km/h (1 Bft)
21.11.2010 21:30 2,8 C 86 % 1008,2 hPa 0,0 mm 0,0 km/h (0 Bft) O-NO 67 0 min 0 UV-I 0 W/m 4,8 km/h (1 Bft)
21.11.2010 21:40 2,7 C 86 % 1008,2 hPa 0,0 mm 0,0 km/h (0 Bft) O-NO 67 0 min 0 UV-I 0 W/m 4,8 km/h (1 Bft)
21.11.2010 21:50 2,6 C 86 % 1008,3 hPa 0,0 mm 1,6 km/h (1 Bft) O-NO 67 0 min 0 UV-I 0 W/m 9,7 km/h (2 Bft)
21.11.2010 22:00 2,5 C 86 % 1008,4 hPa 0,0 mm 0,0 km/h (0 Bft) NO 45 0 min 0 UV-I 0 W/m 4,8 km/h (1 Bft)
21.11.2010 22:10 2,4 C 86 % 1008,3 hPa 0,0 mm 0,0 km/h (0 Bft) O-NO 67 0 min 0 UV-I 0 W/m 3,2 km/h (1 Bft)
21.11.2010 22:20 2,4 C 86 % 1008,3 hPa 0,0 mm 0,0 km/h (0 Bft) O-NO 67 0 min 0 UV-I 0 W/m 3,2 km/h (1 Bft)
21.11.2010 22:30 2,3 C 86 % 1008,1 hPa 0,0 mm 0,0 km/h (0 Bft) O-NO 67 0 min 0 UV-I 0 W/m 4,8 km/h (1 Bft)
21.11.2010 22:40 2,2 C 86 % 1008,1 hPa 0,0 mm 0,0 km/h (0 Bft) O-NO 67 0 min 0 UV-I 0 W/m 4,8 km/h (1 Bft)
21.11.2010 22:50 2,1 C 86 % 1008,1 hPa 0,0 mm 0,0 km/h (0 Bft) O-NO 67 0 min 0 UV-I 0 W/m 6,4 km/h (2 Bft)
21.11.2010 23:00 2,1 C 87 % 1008,1 hPa 0,0 mm 1,6 km/h (1 Bft) O-NO 67 0 min 0 UV-I 0 W/m 4,8 km/h (1 Bft)
21.11.2010 23:10 1,9 C 87 % 1007,8 hPa 0,0 mm 1,6 km/h (1 Bft) O-NO 67 0 min 0 UV-I 0 W/m 8,0 km/h (2 Bft)
21.11.2010 23:20 1,9 C 87 % 1007,8 hPa 0,0 mm 3,2 km/h (1 Bft) O-NO 67 0 min 0 UV-I 0 W/m 12,9 km/h (3 Bft)
21.11.2010 23:30 1,9 C 87 % 1007,6 hPa 0,0 mm 3,2 km/h (1 Bft) O 90 0 min 0 UV-I 0 W/m 11,3 km/h (2 Bft)
21.11.2010 23:40 2,0 C 88 % 1007,5 hPa 0,0 mm 1,6 km/h (1 Bft) O 90 0 min 0 UV-I 0 W/m 8,0 km/h (2 Bft)
21.11.2010 23:50 2,0 C 88 % 1007,4 hPa 0,0 mm 1,6 km/h (1 Bft) O-NO 67 0 min 0 UV-I 0 W/m 6,4 km/h (2 Bft)
_ Min-Zeit 23:10 14:00 23:50 - 03:20 - - - - - 05:10
Minimum _ 1,9 C 67 % 1007,4 hPa - 0,0 km/h (0 Bft) - - - - - 0,0 km/h (0 Bft)
_ Max-Zeit 13:50 09:50 00:00 00:00 11:20 - - 09:50 09:50 13:30 12:20
Maximum _ 9,1 C 91 % 1012,7 hPa 0,0 mm 6,4 km/h
O-NO (2 Bft)
- - 10 min 1 UV-I 369 W/m 19,3 km/h
S-SO (3 Bft)
Durchschnitt _ 4,8 C 84 % 1009,6 hPa #0,0 mm 2,6 km/h (1 Bft) O-SO - #5:30 h 1 UV-I 171 W/m 9,2 km/h (2 Bft)